Printer-friendly version

IAU Minor Planet Center

Minor Planet Center

MPEC 2008-R71 : COMET P/2008 O2 (McNAUGHT)

The following Minor Planet Electronic Circular may be linked-to from your own Web pages, but must not otherwise be redistributed electronically.


Read MPEC 2008-R70 Read MPEC 2008-R72


M.P.E.C. 2008-R71                                Issued 2008 Sept. 15, 16:44 UT

     The Minor Planet Electronic Circulars contain information on unusual
         minor planets and routine data on comets.  They are published
   on behalf of Commission 20 of the International Astronomical Union by the
          Minor Planet Center, Smithsonian Astrophysical Observatory,
                          Cambridge, MA 02138, U.S.A.

             Prepared using the Tamkin Foundation Computer Network

                              MPC@CFA.HARVARD.EDU
          URL http://www.cfa.harvard.edu/iau/mpc.html  ISSN 1523-6714

                          COMET P/2008 O2 (McNAUGHT)

Observations:
    PK08O020  C2008 09 04.95132 21 07 22.36 -17 35 01.8          18.1 N ER071B37
    PK08O020  C2008 09 04.97583 21 07 21.61 -17 35 02.8          18.2 N ER071B37
    PK08O020  C2008 09 04.98039 21 07 21.43 -17 35 04.0          18.3 N ER071B37
    PK08O020  C2008 09 08.53204 21 05 41.67 -17 35 09.0                 ER071900
    PK08O020  C2008 09 08.53997 21 05 41.41 -17 35 09.4          17.3 N ER071900
    PK08O020  C2008 09 08.81637 21 05 34.03 -17 35 09.0          18.0 N ER071585
    PK08O020  C2008 09 08.82216 21 05 33.98 -17 35 07.5          17.9 N ER071585
    PK08O020  C2008 09 09.48608 21 05 16.43 -17 34 59.7          17.7 T ER071423
    PK08O020  C2008 09 09.50715 21 05 15.95 -17 35 00.0          17.8 T ER071423
    PK08O020  C2008 09 09.88950 21 05 06.21 -17 34 59.1          18.3 N ER071J47
    PK08O020  C2008 09 09.88974 21 05 06.18 -17 34 58.9          17.8 N ER071J47
    PK08O020  C2008 09 09.89796 21 05 05.76 -17 35 00.0          17.2 N ER071J47

Observer details:
423 North Ryde.  Observer S. G. McAndrew.  0.20-m f/4 hyperbolic astrograph
    + CCD.
585 Kiev comet station.  Observer A. Baransky.  0.7-m f/4 reflector + CCD.
900 Moriyama.  Observer Y. Ikari.  0.26-m f/7.0 reflector + CCD.
B37 Obs. de L' Ametlla del Valles, Barcelona.  Observer A. Garrigos S.
    0.51-m f/4 Newtonian reflector + CCD.
J47 Observatorio Nazaret.  Observer G. Muler.  0.20-m Schmidt-Cassegrain + CCD.

Orbital elements:
    P/2008 O2 (McNaught)
Epoch 2009 May 9.0 TT = JDT 2454960.5
T 2009 Apr. 21.70687 TT                                 MPC
q   3.8022837            (2000.0)            P               Q
n   0.10344293     Peri.   27.49982     +0.98973983     +0.10870153
a   4.4943702      Node   325.86513     -0.14118411     +0.84376843
e   0.1539897      Incl.    9.51199     +0.02195739     +0.52558425
P   9.53
Residuals in seconds of arc
080728 E12  0.2+  0.2-    080803 204  0.3+  0.0     080824 246  0.0   0.1+
080728 E12  0.2+  0.1-    080803 204  0.2+  0.0     080824 246  0.2-  0.3+
080728 E12  0.4+  0.1-    080803 E08  0.4+  0.2+    080824 246  0.2+  0.2+
080728 E12  0.1+  0.1+    080803 E08  0.6+  0.1-    080824 246  0.6+  0.0
080728 E12  0.2+  0.2-    080803 E08  0.1+  0.1-    080824 246  0.1+  0.1+
080728 E12  0.6+  0.4-    080803 372  0.6+  0.4+    080824 246  0.0   0.2+
080728 B40  0.0   0.6-    080803 372  0.5+  0.7+    080824 246  0.5+  0.1+
080728 246  0.3+  0.2-    080803 372  0.4+  0.5+    080824 246  0.1-  0.0
080728 246  0.2+  0.5+    080803 215  0.5-  0.1-    080824 246  0.1+  0.0
080728 246  0.1-  0.5-    080803 215  0.2-  0.5-    080824 204  0.1-  0.1-
080728 246  0.0   0.3-    080803 215  0.2-  0.7-    080824 204  0.2-  0.0
080728 246  0.0   0.2-    080804 J40 (2.1+  1.6+)   080825 I32  0.3+  0.4+
080728 246  0.0   0.0     080804 J40 (2.8+  1.6+)   080825 J47  0.2+  0.3+
080728 246  0.3+  0.3-    080804 J40 (2.7-  3.0+)   080825 J47  0.0   0.2+
080728 246  0.4-  0.2-    080805 E94  0.9+  0.4+    080825 J47  0.2-  0.2+
080728 B40  0.5+  0.6-    080805 E94  0.3-  0.1+    080825 J47  0.1-  0.3+
080729 J47  0.5+  0.9+    080805 E94  0.7+  0.1-    080827 246 (1.4+  2.1-)
080729 J47  1.3-  0.7-    080805 E94  0.7+  0.5+    080827 246  1.0+  0.1-
080729 J47  0.3-  1.2-    080805 E94 (2.2-  0.1-)   080827 246  0.6+  0.4-
080729 J47  0.0   0.6-    080805 E12  0.2+  0.0     080827 246  1.3+  0.5-
080729 H55  0.4+  0.3+    080805 E12  0.3+  0.1-    080827 246  1.7+  0.0
080729 H55  0.6+  0.0     080805 147  0.0   0.1-    080827 246  1.6+  1.1-
080729 H55  0.6+  0.2+    080805 147  0.6+  0.0     080827 215  0.0   0.1-
080729 H55  0.3+  0.2+    080806 J47  0.2+  0.9+    080827 215  0.0   0.1-
080729 H55  0.5+  0.1+    080806 J47  0.2-  0.9+    080827 215  0.0   0.2-
080729 H55  0.5+  0.1+    080806 J47 (2.0-  1.0-)   080828 A77  0.4-  0.3+
080729 H55  0.3+  0.3+    080807 428  0.8-  0.4-    080828 B26  0.2-  0.3+
080729 H55  0.4+  0.1+    080807 428  0.4-  0.5-    080828 A77  0.4-  0.4+
080729 H55  0.3+  0.0     080807 428  1.1-  0.6-    080828 A77  0.2-  0.3+
080729 H06  0.8-  1.2+    080807 349  0.2+  0.9-    080829 B26  0.2-  1.0-
080729 H06  0.7+  0.0     080807 349  0.1-  0.8-    080829 213  0.6-  0.2+
080729 G96  0.6-  0.6-    080808 423  0.2-  0.3-    080829 213  0.4-  0.2+
080729 H06  0.2-  1.1+    080809 J38  0.1-  0.7+    080829 213  0.1+  0.5+
080729 G96  0.6+  0.2-    080809 J38  0.3-  0.0     080830 246  0.2-  0.1+
080729 G96  1.6-  0.4-    080809 J38  0.4-  0.0     080830 246  0.0   0.3+
080729 G96  0.4-  0.2+    080809 423  0.6-  0.3-    080830 246  0.2+  0.1+
080729 900  0.0   0.3-    080809 423  0.4+  0.5-    080830 246  0.2-  0.3-
080729 900  0.7-  1.8-    080809 900  0.2+  0.1+    080830 246  0.3+  0.0
080729 J95  0.0   0.3-    080809 900  0.5+  0.1+    080830 246  0.2-  0.5+
080729 J95  0.3+  0.7+    080809 A02  0.5-  1.0+    080830 246  0.3+  0.2+
080730 A06  0.3+  0.4-    080809 A02  0.1-  0.5-    080830 046  0.1+  0.2+
080730 A06  0.3-  0.0     080809 A02  0.2-  1.0-    080830 046  0.3+  0.4+
080730 A06  0.8-  0.4+    080810 J53  0.3+  0.1+    080830 046  0.1-  0.5+
080730 I77  1.2-  0.5-    080810 J53  0.2-  0.0     080830 046  0.7+  0.4-
080730 I77  0.9-  0.2-    080810 J53  0.1+  0.2+    080830 046  0.0   0.1+
080730 I77  1.3-  0.3-    080810 423  0.2-  0.0     080830 046  0.1+  0.2-
080730 I77  1.1-  0.4-    080810 423  0.7-  0.2+    080830 046  0.1-  0.4-
080730 F84  0.0   0.2-    080810 372  0.2-  0.6+    080830 232  0.4-  0.4-
080730 F84  0.0   0.4-    080810 372  0.1+  0.6+    080830 232  0.4-  0.3-
080730 E08  1.1+  0.3+    080810 372  0.1-  0.6+    080830 232  0.4-  0.1-
080730 E08  0.8+  0.2+    080810 246  0.3-  0.3+    080831 900  0.4-  0.2+
080730 E08  0.3+  0.1+    080810 246  0.3-  0.3+    080831 900  0.1-  0.1-
080730 E16  1.9-  1.0-    080810 246  0.4-  0.2-    080901 423  0.5-  0.4-
080730 E16  1.7-  0.1-    080810 246  0.2-  0.2+    080901 423  0.7-  0.3-
080730 E16  1.0-  0.6+    080810 246  0.1-  0.2+    080901 B26  0.5-  0.1+
080730 E12  0.4+  0.1-    080811 322  0.1+  0.6-    080901 585  0.3+  0.6+
080730 J95  0.0   0.4-    080811 322  0.5+  0.3-    080901 585  0.5+  0.6+
080730 J95  0.1-  0.2+    080811 322  0.9-  0.6-    080901 585  1.3+  1.3+
080730 J95  0.2+  0.3-    080811 585  1.1+  1.4-    080901 585  0.5+  0.2+
080731 900  0.3+  0.4+    080811 585  0.7+  0.2-    080901 585  0.6-  0.2-
080731 900  0.3-  0.3+    080811 585  1.3+  0.0     080901 585  0.3-  0.2-
080731 104  1.0-  1.4+    080811 585  1.5+  1.3+    080901 585  0.5-  1.0+
080731 104  0.3-  1.3+    080811 585  1.0+  0.9+    080901 J53  0.1+  0.3+
080731 104  0.2+  0.4+    080811 585  0.9+  0.7+    080901 J53  0.1-  0.1+
080731 B20  0.0   0.8+    080811 585  0.4-  0.2-    080901 J53  0.3-  0.2-
080731 B20  0.0   0.9+    080811 585  0.5-  0.6-    080902 246  0.5+  0.0
080731 B20  0.1+  0.7+    080813 I31  1.3-  0.8-    080902 246  0.6+  0.6-
080731 204  0.3+  0.4+    080813 J95  0.1-  0.7-    080902 246  0.1-  0.3-
080801 204  0.1-  0.2+    080813 J95  0.3+  0.6+    080902 246  0.5-  0.4-
080801 I77  0.3-  0.3-    080817 900  0.4+  0.2-    080902 246  0.1+  0.0
080801 I77  0.2-  0.5-    080817 900  0.2+  0.2+    080902 246  0.2+  0.0
080801 I77  0.3-  0.1+    080817 147 (7.3-  2.0-)   080902 246  0.4+  0.5-
080801 H55  0.2+  0.5+    080818 118  0.4-  0.1-    080902 246  0.2-  0.6-
080801 682  0.2+  0.3-    080818 118  0.3-  0.8-    080902 A71  0.8-  0.6+
080801 H55  0.3+  0.4+    080819 E12  0.1-  0.0     080902 A71  0.6-  0.3+
080801 H55  0.3+  0.3+    080821 900  1.3-  0.3+    080902 A71  0.6+  0.0
080801 682  0.0   0.4+    080821 900  0.5-  0.3+    080904 213  0.0   0.1+
080801 213  0.5+  0.9+    080821 104  0.9-  0.3-    080904 213  0.2+  0.2+
080801 213  0.6+  0.8+    080821 104  0.2-  1.0+    080904 B37  0.4-  0.6+
080802 J47 (4.6-  0.6+)   080821 104  0.4-  0.0     080904 B37  0.5-  0.3-
080802 J47  0.7-  1.3+    080821 104  0.6-  0.2+    080904 B37  1.1-  1.4-
080802 J47  0.3-  1.0+    080822 673  0.2+  0.3+    080907 J47  0.2-  0.8+
080802 H55  0.4+  0.1+    080822 673  0.2+  0.4+    080907 J47  0.1+  0.6+
080802 H55  0.5+  0.0     080822 673  0.4+  0.5+    080907 J47  1.4+  0.1-
080802 423  1.1-  0.2-    080822 673  0.4+  0.5+    080908 900  1.0+  0.4-
080802 367  0.9+  0.3-    080823 423  0.6+  0.3+    080908 900  0.4+  0.8-
080802 423  1.5-  0.3-    080823 423  0.6-  0.1-    080908 585  0.3-  1.4-
080802 367  0.5-  0.8-    080823 147  0.6-  0.8+    080908 585  1.2+  0.1+
080802 349  0.8-  1.5+    080824 704  0.4-  0.6-    080909 423  1.3-  0.1-
080802 349  0.8-  1.6+    080824 704  0.7-  0.4-    080909 423  0.1-  0.6-
080802 J95  0.1+  0.4-    080824 704  0.4-  0.3-    080909 J47  0.0   0.1-
080802 J95  0.2+  0.3-    080824 704  0.4-  0.5-    080909 J47  0.3-  0.1+
080802 J95  0.6+  0.4-    080824 704  1.0-  0.0     080909 J47 (3.2-  1.0-)

Brian G. Marsden             (C) Copyright 2008 MPC           M.P.E.C. 2008-R71

Read MPEC 2008-R70 Read MPEC 2008-R72


Our Web policy. Index to the CBAT/MPC/ICQ pages.


Valid HTML 4.01!